Weather History for Corinth, MS

Change the Weather History Date:

Saturday, December 1, 2012

  Actual Average Record
Temperature  
Mean Temperature 52 °F -  
Max Temperature 69 °F 58 °F 76 °F (1982)
Min Temperature 35 °F 33 °F 14 °F (1965)
Degree Days  
Heating Degree Days 13    
Growing Degree Days 2 (Base 50)    
Moisture  
Dew Point 44 °F    
Average Humidity 74    
Maximum Humidity 93    
Minimum Humidity 49    
Precipitation  
Precipitation 0.00 in - - ()
Sea Level Pressure  
Sea Level Pressure 30.22 in    
Wind  
Wind Speed 5 mph (SSE)    
Max Wind Speed 16 mph    
Max Gust Speed 23 mph    
Visibility 9 miles    
Events Fog    
Averages and records for this station are not official NWS values.
T = Trace of Precipitation, MM = Missing Value Source: NWS Daily Summary

Daily Weather History Graph

Daily Weather History Graph

Search for Another Location

Airport:

Trip Planner

Search our weather history database for the weather conditions in past years. The results will help you decide how hot, cold, wet, or windy it might be!

Date:

Astronomy

Dec. 01, 2012 Rise Set
Actual Time 6:44 AM CST 4:42 PM CST
Civil Twilight 6:16 AM CST 5:10 PM CST
Nautical Twilight 5:45 AM CST 5:41 PM CST
Astronomical Twilight 5:14 AM CST 6:12 PM CST
Moon 7:30 PM CST (12/1) 8:58 AM CST (12/1)
Length of Visible Light 10h 54m
Length of Day
9h 58m
Waning Gibbous, 91% of the Moon is Illuminated
Dec 1
Waning Gibbous
Dec 6
Last Quarter
Dec 13
New
Dec 19
First Quarter
Dec 28
Full

Hourly Weather History & Observations

Time (CST) Temp. Windchill Dew Point Humidity Pressure Visibility Wind Dir Wind Speed Gust Speed Precip Events Conditions
12:15 AM 37.4 °F - 35.6 °F 93% 30.24 in 9.0 mi Calm Calm - N/A   Clear
12:35 AM 35.6 °F - 33.8 °F 93% 30.24 in 10.0 mi Calm Calm - N/A   Clear
12:55 AM 37.4 °F - 35.6 °F 93% 30.24 in 10.0 mi Calm Calm - N/A   Clear
1:15 AM 37.4 °F 32.8 °F 35.6 °F 93% 30.24 in 8.0 mi South 5.8 mph - N/A   Clear
1:35 AM 35.6 °F 30.7 °F 33.8 °F 93% 30.23 in 9.0 mi SSE 5.8 mph - N/A   Clear
1:55 AM 37.4 °F 34.9 °F 33.8 °F 87% 30.23 in 9.0 mi SSE 3.5 mph - N/A   Clear
2:15 AM 37.4 °F 33.8 °F 35.6 °F 93% 30.24 in 8.0 mi SE 4.6 mph - N/A   Clear
2:35 AM 35.6 °F - 33.8 °F 93% 30.24 in 10.0 mi Calm Calm - N/A   Clear
3:15 AM 35.6 °F - 33.8 °F 93% 30.24 in 9.0 mi Calm Calm - N/A   Clear
3:35 AM 35.6 °F - 32.0 °F 87% 30.24 in 10.0 mi Calm Calm - N/A   Clear
4:15 AM 35.6 °F - 32.0 °F 87% 30.25 in 9.0 mi Calm Calm - N/A   Clear
4:35 AM 35.6 °F - 32.0 °F 87% 30.25 in 10.0 mi Calm Calm - N/A   Clear
4:55 AM 35.6 °F 31.7 °F 32.0 °F 87% 30.25 in 9.0 mi SSE 4.6 mph - N/A   Clear
5:15 AM 35.6 °F 30.7 °F 32.0 °F 87% 30.25 in 2.0 mi SSE 5.8 mph - N/A   Clear
5:35 AM 35.6 °F 31.7 °F 33.8 °F 93% 30.25 in 3.0 mi South 4.6 mph - N/A   Clear
5:55 AM 35.6 °F 29.9 °F 33.8 °F 93% 30.25 in 3.0 mi SSE 6.9 mph - N/A   Clear
6:15 AM 37.4 °F 32.8 °F 35.6 °F 93% 30.26 in 2.5 mi SSE 5.8 mph - N/A   Clear
6:35 AM 37.4 °F 32.8 °F 35.6 °F 93% 30.26 in 3.0 mi South 5.8 mph - N/A   Clear
6:55 AM 35.6 °F - 32.0 °F 87% 30.26 in 0.8 mi Calm Calm - N/A   Mist
7:15 AM 35.6 °F - 33.8 °F 93% 30.27 in 0.2 mi Calm Calm - N/A Fog Fog
7:35 AM 37.4 °F 34.9 °F 35.6 °F 93% 30.27 in 0.2 mi ESE 3.5 mph - N/A Fog Fog
7:55 AM 39.2 °F - 37.4 °F 93% 30.27 in 5.0 mi Calm Calm - N/A   Clear
8:15 AM 44.6 °F - 41.0 °F 87% 30.27 in 8.0 mi Calm Calm - N/A   Clear
8:35 AM 48.2 °F - 44.6 °F 87% 30.28 in 10.0 mi SE 4.6 mph - N/A   Clear
8:55 AM 50.0 °F - 46.4 °F 87% 30.28 in 10.0 mi SSE 5.8 mph - N/A   Clear
9:15 AM 55.4 °F - 46.4 °F 72% 30.28 in 10.0 mi SSE 6.9 mph - N/A   Clear
9:35 AM 57.2 °F - 48.2 °F 72% 30.28 in 10.0 mi SSE 6.9 mph - N/A   Clear
10:15 AM 62.6 °F - 48.2 °F 59% 30.28 in 10.0 mi South 10.4 mph - N/A   Clear
10:35 AM 64.4 °F - 48.2 °F 56% 30.27 in 10.0 mi SSE 9.2 mph - N/A   Clear
10:55 AM 64.4 °F - 48.2 °F 56% 30.26 in 10.0 mi South 8.1 mph - N/A   Clear
11:15 AM 66.2 °F - 48.2 °F 52% 30.25 in 10.0 mi South 13.8 mph 19.6 mph N/A   Clear
11:35 AM 66.2 °F - 48.2 °F 52% 30.24 in 10.0 mi South 10.4 mph 18.4 mph N/A   Clear
11:55 AM 66.2 °F - 50.0 °F 56% 30.23 in 10.0 mi South 13.8 mph - N/A   Clear
12:15 PM 68.0 °F - 48.2 °F 49% 30.22 in 10.0 mi South 13.8 mph - N/A   Clear
12:35 PM 68.0 °F - 48.2 °F 49% 30.21 in 10.0 mi South 15.0 mph 18.4 mph N/A   Clear
12:55 PM 68.0 °F - 48.2 °F 49% 30.20 in 10.0 mi South 15.0 mph 23.0 mph N/A   Clear
1:15 PM 68.0 °F - 48.2 °F 49% 30.19 in 10.0 mi South 15.0 mph - N/A   Clear
1:35 PM 68.0 °F - 48.2 °F 49% 30.19 in 10.0 mi South 13.8 mph 21.9 mph N/A   Clear
1:55 PM 68.0 °F - 48.2 °F 49% 30.18 in 10.0 mi South 12.7 mph 17.3 mph N/A   Clear
2:15 PM 68.0 °F - 50.0 °F 52% 30.17 in 10.0 mi South 16.1 mph - N/A   Clear
2:35 PM 69.8 °F - 50.0 °F 49% 30.17 in 10.0 mi South 12.7 mph 18.4 mph N/A   Clear
2:55 PM 69.8 °F - 50.0 °F 49% 30.17 in 10.0 mi SSE 13.8 mph 19.6 mph N/A   Clear
3:15 PM 68.0 °F - 48.2 °F 49% 30.17 in 10.0 mi South 11.5 mph - N/A   Clear
3:35 PM 68.0 °F - 48.2 °F 49% 30.17 in 10.0 mi South 12.7 mph 19.6 mph N/A   Clear
3:55 PM 68.0 °F - 48.2 °F 49% 30.16 in 10.0 mi South 12.7 mph 18.4 mph N/A   Clear
4:15 PM 66.2 °F - 50.0 °F 56% 30.16 in 10.0 mi South 11.5 mph 18.4 mph N/A   Clear
4:35 PM 66.2 °F - 48.2 °F 52% 30.17 in 10.0 mi South 10.4 mph 16.1 mph N/A   Clear
4:55 PM 64.4 °F - 50.0 °F 59% 30.17 in 10.0 mi South 9.2 mph - N/A   Clear
5:15 PM 62.6 °F - 50.0 °F 63% 30.17 in 10.0 mi South 6.9 mph - N/A   Clear
5:55 PM 60.8 °F - 50.0 °F 68% 30.18 in 10.0 mi South 8.1 mph - N/A   Clear
6:15 PM 60.8 °F - 50.0 °F 68% 30.18 in 10.0 mi South 6.9 mph - N/A   Clear
6:35 PM 59.0 °F - 50.0 °F 72% 30.18 in 10.0 mi SSE 8.1 mph - N/A   Clear
6:55 PM 57.2 °F - 48.2 °F 72% 30.18 in 10.0 mi SSE 6.9 mph - N/A   Clear
7:15 PM 57.2 °F - 48.2 °F 72% 30.18 in 10.0 mi SSE 6.9 mph - N/A   Clear
7:55 PM 55.4 °F - 48.2 °F 77% 30.18 in 10.0 mi SSE 4.6 mph - N/A   Clear
8:15 PM 55.4 °F - 48.2 °F 77% 30.18 in 10.0 mi SSE 5.8 mph - N/A   Clear
8:35 PM 55.4 °F - 48.2 °F 77% 30.18 in 10.0 mi SSE 4.6 mph - N/A   Clear
8:55 PM 55.4 °F - 48.2 °F 77% 30.18 in 10.0 mi SSE 5.8 mph - N/A   Clear
9:15 PM 53.6 °F - 48.2 °F 82% 30.18 in 10.0 mi SE 6.9 mph - N/A   Clear
9:35 PM 55.4 °F - 48.2 °F 77% 30.18 in 10.0 mi SSE 5.8 mph - N/A   Clear
9:55 PM 53.6 °F - 48.2 °F 82% 30.18 in 10.0 mi South 6.9 mph - N/A   Clear
10:15 PM 53.6 °F - 48.2 °F 82% 30.18 in 10.0 mi South 8.1 mph - N/A   Clear
10:35 PM 55.4 °F - 48.2 °F 77% 30.18 in 10.0 mi South 8.1 mph - N/A   Clear
10:55 PM 55.4 °F - 48.2 °F 77% 30.19 in 10.0 mi South 9.2 mph - N/A   Clear
11:15 PM 55.4 °F - 48.2 °F 77% 30.20 in 10.0 mi SSE 5.8 mph - N/A   Clear
11:35 PM 53.6 °F - 48.2 °F 82% 30.20 in 10.0 mi SSE 6.9 mph - N/A   Clear
11:55 PM 53.6 °F - 48.2 °F 82% 30.20 in 10.0 mi SSE 5.8 mph - N/A   Clear